Weather History for Canton, GA

Change the Weather History Date:

Saturday, February 16, 2013

  Actual Average (KGVL) Record (KGVL)
Temperature  
Mean Temperature 34 °F 46 °F  
Max Temperature 41 °F 55 °F 77 °F (1989)
Min Temperature 28 °F 36 °F 11 °F (1958)
Degree Days  
Heating Degree Days 30 19  
Month to date heating degree days 333  
Since 1 July heating degree days 2251  
Moisture  
Dew Point 15 °F    
Average Humidity 50    
Maximum Humidity 80    
Minimum Humidity 16    
Precipitation  
Precipitation 0.00 in 0.18 in 1.70 in (1966)
Month to date precipitation 2.57  
Year to date precipitation 7.60  
Snow  
Snow 0.00 in - - ()
Month to date snowfall  
Since 1 July snowfall  
Snow Depth -    
Sea Level Pressure  
Sea Level Pressure 30.02 in    
Wind  
Wind Speed 7 mph (NW)    
Max Wind Speed 20 mph    
Max Gust Speed 28 mph    
Visibility 10 miles    
Events      
T = Trace of Precipitation, MM = Missing Value Source: NWS Daily Summary

Daily Weather History Graph

Daily Weather History Graph

Search for Another Location

Airport:

Trip Planner

Search our weather history database for the weather conditions in past years. The results will help you decide how hot, cold, wet, or windy it might be!

Date:

Astronomy

Feb. 16, 2013 Rise Set
Actual Time 7:21 AM EST 6:22 PM EST
Civil Twilight 6:55 AM EST 6:48 PM EST
Nautical Twilight 6:26 AM EST 7:17 PM EST
Astronomical Twilight 5:57 AM EST 7:46 PM EST
Moon 10:52 AM EST (2/16) 12:03 AM EST (2/16)
Length of Visible Light 11h 52m
Length of Day
11h 01m
Waxing Crescent, 39% of the Moon is Illuminated
Feb 16
Waxing Crescent
Feb 17
First Quarter
Feb 25
Full
Mar 4
Last Quarter
Mar 11
New

Hourly Weather History & Observations

Time (EST) Temp. Windchill Dew Point Humidity Pressure Visibility Wind Dir Wind Speed Gust Speed Precip Events Conditions
12:15 AM 39.2 °F 35.0 °F 30.2 °F 70% 30.02 in 10.0 mi WNW 5.8 mph - N/A   Clear
12:35 AM 39.2 °F 35.0 °F 30.2 °F 70% 30.01 in 10.0 mi NW 5.8 mph - N/A   Clear
12:55 AM 37.4 °F 34.9 °F 26.6 °F 65% 30.01 in 10.0 mi NW 3.5 mph - N/A   Mostly Cloudy
1:15 AM 37.4 °F 33.8 °F 26.6 °F 65% 30.01 in 10.0 mi NW 4.6 mph - N/A   Overcast
1:35 AM 37.4 °F 33.8 °F 26.6 °F 65% 30.00 in 10.0 mi NW 4.6 mph - N/A   Overcast
1:55 AM 37.4 °F 30.8 °F 26.6 °F 65% 29.99 in 10.0 mi NW 9.2 mph - N/A   Overcast
2:15 AM 37.4 °F 31.4 °F 26.6 °F 65% 29.99 in 10.0 mi NW 8.1 mph - N/A   Overcast
2:35 AM 37.4 °F 32.8 °F 26.6 °F 65% 29.99 in 10.0 mi NW 5.8 mph - N/A   Overcast
2:55 AM 37.4 °F 32.1 °F 26.6 °F 65% 29.98 in 10.0 mi WNW 6.9 mph - N/A   Overcast
3:15 AM 37.4 °F 32.8 °F 26.6 °F 65% 29.97 in 10.0 mi NW 5.8 mph - N/A   Overcast
3:35 AM 35.6 °F 32.8 °F 26.6 °F 70% 29.96 in 10.0 mi NW 3.5 mph - N/A   Mostly Cloudy
3:55 AM 35.6 °F 31.7 °F 26.6 °F 70% 29.95 in 10.0 mi NW 4.6 mph - N/A   Scattered Clouds
4:15 AM 35.6 °F 31.7 °F 24.8 °F 65% 29.95 in 10.0 mi WNW 4.6 mph - N/A   Clear
4:35 AM 33.8 °F 28.6 °F 26.6 °F 75% 29.96 in 10.0 mi WNW 5.8 mph - N/A   Scattered Clouds
4:55 AM 33.8 °F 27.7 °F 26.6 °F 75% 29.96 in 10.0 mi NW 6.9 mph - N/A   Clear
5:15 AM 33.8 °F 27.0 °F 26.6 °F 75% 29.97 in 10.0 mi NW 8.1 mph - N/A   Scattered Clouds
5:55 AM 33.8 °F 27.7 °F 26.6 °F 75% 29.97 in 10.0 mi WNW 6.9 mph - N/A   Overcast
6:15 AM 33.8 °F 27.7 °F 26.6 °F 75% 29.98 in 10.0 mi NW 6.9 mph - N/A   Overcast
6:35 AM 33.8 °F 27.7 °F 26.6 °F 75% 29.98 in 10.0 mi WNW 6.9 mph - N/A   Overcast
6:55 AM 32.0 °F 26.4 °F 26.6 °F 80% 29.98 in 10.0 mi WNW 5.8 mph - N/A   Overcast
7:15 AM 32.0 °F 26.4 °F 24.8 °F 75% 29.98 in 10.0 mi NW 5.8 mph - N/A   Mostly Cloudy
7:35 AM 32.0 °F 26.4 °F 24.8 °F 75% 29.98 in 10.0 mi WNW 5.8 mph - N/A   Mostly Cloudy
7:55 AM 32.0 °F 25.6 °F 24.8 °F 75% 29.99 in 10.0 mi WNW 6.9 mph - N/A   Overcast
8:15 AM 32.0 °F 25.6 °F 23.0 °F 69% 29.99 in 10.0 mi WNW 6.9 mph - N/A   Scattered Clouds
8:35 AM 32.0 °F 24.8 °F 21.2 °F 64% 30.00 in 10.0 mi NW 8.1 mph - N/A   Scattered Clouds
8:55 AM 33.8 °F 27.7 °F 21.2 °F 60% 30.01 in 10.0 mi NW 6.9 mph - N/A   Clear
9:15 AM 33.8 °F 30.8 °F 21.2 °F 60% 30.01 in 10.0 mi NW 3.5 mph - N/A   Clear
9:35 AM 33.8 °F 27.0 °F 19.4 °F 56% 30.01 in 10.0 mi WNW 8.1 mph - N/A   Clear
9:55 AM 33.8 °F 27.0 °F 19.4 °F 56% 30.01 in 10.0 mi WNW 8.1 mph 16.1 mph N/A   Clear
10:15 AM 35.6 °F 29.2 °F 19.4 °F 52% 30.01 in 10.0 mi WNW 8.1 mph - N/A   Clear
10:35 AM 37.4 °F 29.8 °F 15.8 °F 41% 30.01 in 10.0 mi WNW 11.5 mph 19.6 mph N/A   Clear
1:15 PM 41.0 °F 32.2 °F 3.2 °F 21% 29.99 in 10.0 mi WNW 18.4 mph 25.3 mph N/A   Scattered Clouds
1:35 PM 41.0 °F 33.9 °F 1.4 °F 19% 29.98 in 10.0 mi NW 12.7 mph 24.2 mph N/A   Scattered Clouds
1:55 PM 37.4 °F 29.3 °F 1.4 °F 22% 29.98 in 10.0 mi WNW 12.7 mph 25.3 mph N/A   Scattered Clouds
2:15 PM 37.4 °F 29.8 °F -0.4 °F 20% 29.98 in 10.0 mi WNW 11.5 mph 27.6 mph N/A   Mostly Cloudy
2:35 PM 41.0 °F 36.4 °F -0.4 °F 18% 29.98 in 10.0 mi NW 6.9 mph 18.4 mph N/A   Mostly Cloudy
2:55 PM 39.2 °F 31.2 °F -4.0 °F 16% 29.98 in 10.0 mi NNW 13.8 mph 19.6 mph N/A   Mostly Cloudy
3:15 PM 37.4 °F 32.1 °F -0.4 °F 20% 29.99 in 10.0 mi NW 6.9 mph 20.7 mph N/A   Overcast
3:35 PM 37.4 °F 27.2 °F -2.2 °F 19% 29.99 in 10.0 mi NW 19.6 mph 27.6 mph N/A   Mostly Cloudy
3:55 PM 39.2 °F 31.6 °F -0.4 °F 19% 29.99 in 10.0 mi NW 12.7 mph 24.2 mph N/A   Mostly Cloudy
4:15 PM 35.6 °F 26.6 °F -0.4 °F 22% 30.00 in 10.0 mi NW 13.8 mph 23.0 mph N/A   Mostly Cloudy
4:35 PM 35.6 °F 27.1 °F -2.2 °F 20% 30.01 in 10.0 mi NW 12.7 mph 23.0 mph N/A   Scattered Clouds
4:55 PM 35.6 °F 27.1 °F -2.2 °F 20% 30.01 in 10.0 mi NW 12.7 mph 21.9 mph N/A   Clear
5:15 PM 33.8 °F 25.3 °F -0.4 °F 23% 30.02 in 10.0 mi NW 11.5 mph 21.9 mph N/A   Scattered Clouds
5:35 PM 33.8 °F 26.4 °F 3.2 °F 28% 30.04 in 10.0 mi NW 9.2 mph 19.6 mph N/A   Scattered Clouds
5:55 PM 32.0 °F 24.2 °F 8.6 °F 38% 30.04 in 10.0 mi NW 9.2 mph 16.1 mph N/A   Scattered Clouds
6:15 PM 32.0 °F 25.6 °F 8.6 °F 38% 30.04 in 10.0 mi NW 6.9 mph - N/A   Clear
6:35 PM 32.0 °F 25.6 °F 10.4 °F 41% 30.05 in 10.0 mi WNW 6.9 mph - N/A   Mostly Cloudy
6:55 PM 32.0 °F 26.4 °F 10.4 °F 41% 30.06 in 10.0 mi NW 5.8 mph - N/A   Mostly Cloudy
7:15 PM 32.0 °F 24.8 °F 8.6 °F 38% 30.06 in 10.0 mi NW 8.1 mph - N/A   Scattered Clouds
7:35 PM 32.0 °F 27.5 °F 8.6 °F 38% 30.07 in 10.0 mi NW 4.6 mph - N/A   Clear
7:55 PM 32.0 °F 25.6 °F 6.8 °F 35% 30.07 in 10.0 mi NW 6.9 mph - N/A   Clear
8:15 PM 32.0 °F 24.2 °F 5.0 °F 32% 30.08 in 10.0 mi NW 9.2 mph 16.1 mph N/A   Clear
8:35 PM 32.0 °F 26.4 °F 6.8 °F 35% 30.09 in 10.0 mi NW 5.8 mph - N/A   Clear
8:55 PM 32.0 °F 26.4 °F 8.6 °F 38% 30.09 in 10.0 mi NW 5.8 mph - N/A   Clear
9:15 PM 32.0 °F 26.4 °F 10.4 °F 41% 30.11 in 10.0 mi WNW 5.8 mph 17.3 mph N/A   Clear
9:35 PM 30.2 °F 23.4 °F 10.4 °F 44% 30.11 in 10.0 mi NW 6.9 mph - N/A   Clear
9:55 PM 30.2 °F 24.3 °F 12.2 °F 47% 30.11 in 10.0 mi NW 5.8 mph - N/A   Clear
10:15 PM 30.2 °F 22.6 °F 12.2 °F 47% 30.11 in 10.0 mi NW 8.1 mph - N/A   Clear
10:35 PM 30.2 °F 22.6 °F 12.2 °F 47% 30.12 in 10.0 mi NW 8.1 mph - N/A   Clear
10:55 PM 30.2 °F 24.3 °F 14.0 °F 51% 30.12 in 10.0 mi NW 5.8 mph - N/A   Clear
11:15 PM 30.2 °F 22.6 °F 14.0 °F 51% 30.12 in 10.0 mi WNW 8.1 mph - N/A   Clear
11:35 PM 28.4 °F 23.3 °F 14.0 °F 55% 30.12 in 10.0 mi NW 4.6 mph - N/A   Clear
11:55 PM 28.4 °F 21.2 °F 14.0 °F 55% 30.12 in 10.0 mi NW 6.9 mph - N/A   Clear